B320Q EDDF-EDDM

Flight info

Callsign B320Q
Flight time 0h 37m
Altitude 23000
Route CINDY8S/18 CINDY Z74 HAREM T104 ROKIL
Aircraft A319/M-SDE3FGHIRWY/LB1

Departure

Time 2026-04-17 21:57
Airport Frankfurt Main Airport (EDDF)

Arrival

Time 2026-04-17 22:34
Airport Munich Airport (EDDM)
Time Latitude Longitude Altitude Speed Heading
2026-04-17 21:12 50.04637 8.56664 356 ft 0 kts 115°
2026-04-17 21:37 50.04638 8.56659 362 ft 3 kts 115°
2026-04-17 21:37 50.04650 8.56621 357 ft 4 kts 115°
2026-04-17 21:38 50.04661 8.56583 362 ft 4 kts 118°
2026-04-17 21:38 50.04675 8.56548 363 ft 4 kts 142°
2026-04-17 21:38 50.04690 8.56539 363 ft 0 kts 205°
2026-04-17 21:38 50.04676 8.56529 362 ft 4 kts 205°
2026-04-17 21:39 50.04652 8.56511 358 ft 4 kts 205°
2026-04-17 21:39 50.04627 8.56494 359 ft 4 kts 205°
2026-04-17 21:39 50.04602 8.56476 358 ft 4 kts 205°
2026-04-17 21:39 50.04579 8.56460 356 ft 2 kts 205°
2026-04-17 21:40 50.04578 8.56459 356 ft 0 kts 205°
2026-04-17 21:41 50.04569 8.56452 356 ft 3 kts 205°
2026-04-17 21:42 50.04540 8.56431 356 ft 6 kts 207°
2026-04-17 21:42 50.04513 8.56374 361 ft 8 kts 250°
2026-04-17 21:42 50.04492 8.56281 357 ft 10 kts 250°
2026-04-17 21:42 50.04476 8.56217 360 ft 2 kts 249°
2026-04-17 21:43 50.04469 8.56187 363 ft 4 kts 249°
2026-04-17 21:43 50.04456 8.56131 361 ft 7 kts 249°
2026-04-17 21:43 50.04435 8.56051 360 ft 9 kts 240°
2026-04-17 21:43 50.04376 8.56034 356 ft 10 kts 155°
2026-04-17 21:44 50.04298 8.56074 355 ft 13 kts 184°
2026-04-17 21:44 50.04242 8.55953 355 ft 16 kts 248°
2026-04-17 21:44 50.04209 8.55817 357 ft 12 kts 250°
2026-04-17 21:44 50.04181 8.55697 356 ft 10 kts 249°
2026-04-17 21:45 50.04153 8.55582 357 ft 13 kts 249°
2026-04-17 21:45 50.04119 8.55440 356 ft 15 kts 250°
2026-04-17 21:45 50.04086 8.55299 353 ft 13 kts 250°
2026-04-17 21:45 50.04053 8.55159 361 ft 15 kts 250°
2026-04-17 21:46 50.04019 8.55021 358 ft 12 kts 249°
2026-04-17 21:46 50.03985 8.54880 354 ft 16 kts 249°
2026-04-17 21:46 50.03943 8.54701 350 ft 19 kts 250°
2026-04-17 21:46 50.03905 8.54543 351 ft 12 kts 249°
2026-04-17 21:47 50.03876 8.54423 354 ft 11 kts 249°
2026-04-17 21:47 50.03843 8.54331 349 ft 11 kts 232°
2026-04-17 21:47 50.03797 8.54216 354 ft 14 kts 248°
2026-04-17 21:47 50.03761 8.54059 351 ft 17 kts 250°
2026-04-17 21:48 50.03716 8.53875 350 ft 20 kts 249°
2026-04-17 21:48 50.03665 8.53662 342 ft 22 kts 249°
2026-04-17 21:48 50.03606 8.53427 337 ft 25 kts 249°
2026-04-17 21:48 50.03544 8.53164 335 ft 27 kts 250°
2026-04-17 21:49 50.03500 8.52983 335 ft 14 kts 249°
2026-04-17 21:49 50.03461 8.52835 337 ft 8 kts 246°
2026-04-17 21:49 50.03434 8.52735 333 ft 10 kts 250°
2026-04-17 21:49 50.03429 8.52714 335 ft 0 kts 250°
2026-04-17 21:56 50.03423 8.52686 336 ft 7 kts 250°
2026-04-17 21:56 50.03398 8.52600 334 ft 8 kts 224°
2026-04-17 21:56 50.03365 8.52593 335 ft 0 kts 178°
2026-04-17 21:56 50.03325 8.52595 336 ft 36 kts 179°
2026-04-17 21:57 50.02730 8.52599 336 ft 130 kts 180°
2026-04-17 21:57 50.01651 8.52610 790 ft 158 kts 179°
2026-04-17 21:57 50.00560 8.52623 1774 ft 156 kts 180°
2026-04-17 21:57 49.99445 8.52631 2565 ft 169 kts 180°
2026-04-17 21:58 49.98184 8.52644 3143 ft 194 kts 178°
2026-04-17 21:58 49.96813 8.53265 3802 ft 221 kts 148°
2026-04-17 21:58 49.95758 8.55084 4787 ft 234 kts 120°
2026-04-17 21:58 49.94963 8.57305 5997 ft 237 kts 120°
2026-04-17 21:59 49.94266 8.59647 7164 ft 243 kts 108°
2026-04-17 21:59 49.93976 8.62356 7972 ft 269 kts 94°
2026-04-17 21:59 49.93819 8.65329 8922 ft 282 kts 101°
2026-04-17 21:59 49.93232 8.68245 10093 ft 286 kts 116°
2026-04-17 22:00 49.92141 8.70943 10799 ft 307 kts 131°
2026-04-17 22:00 49.90495 8.73163 11611 ft 320 kts 147°
2026-04-17 22:00 49.88735 8.75343 12582 ft 330 kts 135°
2026-04-17 22:00 49.87352 8.78248 13558 ft 341 kts 121°
2026-04-17 22:01 49.86234 8.81522 14472 ft 348 kts 119°
2026-04-17 22:01 49.85074 8.84849 15389 ft 353 kts 120°
2026-04-17 22:01 49.83871 8.88209 16290 ft 358 kts 120°
2026-04-17 22:01 49.82639 8.91592 17195 ft 364 kts 120°
2026-04-17 22:02 49.81381 8.95024 18083 ft 369 kts 120°
2026-04-17 22:02 49.80104 8.98505 18909 ft 374 kts 120°
2026-04-17 22:02 49.78812 9.02028 19693 ft 379 kts 120°
2026-04-17 22:02 49.77504 9.05596 20480 ft 384 kts 120°
2026-04-17 22:03 49.76311 9.09318 21270 ft 389 kts 111°
2026-04-17 22:03 49.75535 9.13343 22050 ft 393 kts 103°
2026-04-17 22:03 49.74674 9.17382 22808 ft 398 kts 114°
2026-04-17 22:03 49.73307 9.21119 23118 ft 400 kts 126°
2026-04-17 22:04 49.71538 9.24393 23195 ft 390 kts 133°
2026-04-17 22:04 49.69775 9.27434 23199 ft 371 kts 132°
2026-04-17 22:04 49.68086 9.30382 23197 ft 363 kts 132°
2026-04-17 22:04 49.66426 9.33305 23196 ft 361 kts 131°
2026-04-17 22:05 49.64775 9.36226 23199 ft 361 kts 131°
2026-04-17 22:05 49.63148 9.39111 23201 ft 361 kts 131°
2026-04-17 22:05 49.61478 9.42063 23211 ft 361 kts 131°
2026-04-17 22:05 49.59827 9.44970 23206 ft 361 kts 131°
2026-04-17 22:06 49.58198 9.47838 23200 ft 361 kts 131°
2026-04-17 22:06 49.56540 9.50749 23205 ft 361 kts 131°
2026-04-17 22:06 49.54886 9.53652 23207 ft 361 kts 132°
2026-04-17 22:06 49.53228 9.56556 23207 ft 361 kts 132°
2026-04-17 22:07 49.51571 9.59455 23209 ft 361 kts 132°
2026-04-17 22:07 49.49915 9.62354 23214 ft 361 kts 131°
2026-04-17 22:07 49.48795 9.64314 23224 ft 361 kts 131°
2026-04-17 22:07 49.46597 9.68161 23219 ft 361 kts 131°
2026-04-17 22:08 49.45476 9.70119 23221 ft 361 kts 131°
2026-04-17 22:08 49.43815 9.73016 23223 ft 361 kts 132°
2026-04-17 22:08 49.42149 9.75905 23226 ft 361 kts 132°
2026-04-17 22:08 49.40483 9.78791 23227 ft 361 kts 132°
2026-04-17 22:09 49.38812 9.81683 23230 ft 362 kts 132°
2026-04-17 22:09 49.37143 9.84571 23229 ft 362 kts 132°
2026-04-17 22:09 49.35495 9.87416 23232 ft 362 kts 132°
2026-04-17 22:09 49.33821 9.90300 23227 ft 362 kts 132°
2026-04-17 22:10 49.32147 9.93185 23229 ft 362 kts 132°
2026-04-17 22:10 49.30475 9.96067 23230 ft 362 kts 132°
2026-04-17 22:10 49.28805 9.98944 23227 ft 362 kts 132°
2026-04-17 22:10 49.27129 10.01828 23229 ft 362 kts 132°
2026-04-17 22:11 49.25454 10.04707 23230 ft 362 kts 132°
2026-04-17 22:11 49.23778 10.07585 23229 ft 362 kts 132°
2026-04-17 22:11 49.22100 10.10458 23228 ft 362 kts 132°
2026-04-17 22:11 49.20416 10.13336 23232 ft 362 kts 132°
2026-04-17 22:12 49.18735 10.16209 23234 ft 362 kts 132°
2026-04-17 22:12 49.17055 10.19079 23232 ft 363 kts 132°
2026-04-17 22:12 49.15371 10.21955 23234 ft 363 kts 132°
2026-04-17 22:12 49.13687 10.24819 23231 ft 363 kts 132°
2026-04-17 22:13 49.11977 10.27641 23237 ft 363 kts 133°
2026-04-17 22:13 49.10241 10.30436 23243 ft 363 kts 134°
2026-04-17 22:13 49.08491 10.33218 23235 ft 363 kts 134°
2026-04-17 22:13 49.06740 10.35994 23234 ft 363 kts 134°
2026-04-17 22:14 49.04994 10.38777 23227 ft 364 kts 134°
2026-04-17 22:14 49.03226 10.41608 22845 ft 371 kts 134°
2026-04-17 22:14 49.01452 10.44453 22435 ft 370 kts 134°
2026-04-17 22:14 48.99683 10.47286 22042 ft 368 kts 134°
2026-04-17 22:15 48.97922 10.50097 21655 ft 365 kts 134°
2026-04-17 22:15 48.96172 10.52880 21270 ft 363 kts 134°
2026-04-17 22:15 48.94431 10.55652 20888 ft 361 kts 134°
2026-04-17 22:15 48.92705 10.58404 20517 ft 359 kts 134°
2026-04-17 22:16 48.90988 10.61141 20152 ft 356 kts 134°
2026-04-17 22:16 48.89279 10.63855 19785 ft 354 kts 134°
2026-04-17 22:16 48.87581 10.66547 19428 ft 352 kts 134°
2026-04-17 22:16 48.85896 10.69220 19068 ft 349 kts 134°
2026-04-17 22:17 48.84219 10.71877 18716 ft 347 kts 134°
2026-04-17 22:17 48.82551 10.74514 18341 ft 345 kts 134°
2026-04-17 22:17 48.80888 10.77138 17938 ft 343 kts 134°
2026-04-17 22:17 48.79233 10.79739 17541 ft 341 kts 134°
2026-04-17 22:18 48.77588 10.82317 17149 ft 339 kts 134°
2026-04-17 22:18 48.75954 10.84875 16760 ft 337 kts 134°
2026-04-17 22:18 48.74324 10.87427 16375 ft 335 kts 134°
2026-04-17 22:18 48.72707 10.89960 15994 ft 334 kts 134°
2026-04-17 22:19 48.71098 10.92480 15626 ft 332 kts 134°
2026-04-17 22:19 48.69496 10.94988 15255 ft 330 kts 134°
2026-04-17 22:19 48.67900 10.97479 14896 ft 329 kts 134°
2026-04-17 22:19 48.66313 10.99949 14531 ft 327 kts 134°
2026-04-17 22:20 48.64730 11.02411 14179 ft 325 kts 134°
2026-04-17 22:20 48.63154 11.04858 13800 ft 324 kts 134°
2026-04-17 22:20 48.61590 11.07282 13400 ft 321 kts 134°
2026-04-17 22:20 48.60027 11.09699 12862 ft 322 kts 134°
2026-04-17 22:21 48.58575 11.12267 12361 ft 322 kts 120°
2026-04-17 22:21 48.57801 11.15396 11861 ft 319 kts 102°
2026-04-17 22:21 48.57336 11.18677 11355 ft 318 kts 101°
2026-04-17 22:21 48.56898 11.21941 10887 ft 316 kts 100°
2026-04-17 22:22 48.56476 11.25130 10720 ft 303 kts 100°
2026-04-17 22:22 48.56072 11.28196 10497 ft 294 kts 100°
2026-04-17 22:22 48.55678 11.31195 10159 ft 289 kts 100°
2026-04-17 22:22 48.55297 11.34123 9753 ft 287 kts 100°
2026-04-17 22:23 48.54915 11.37058 9321 ft 284 kts 100°
2026-04-17 22:23 48.54538 11.39974 8883 ft 282 kts 100°
2026-04-17 22:23 48.54164 11.42866 8443 ft 280 kts 100°
2026-04-17 22:23 48.53795 11.45735 7995 ft 278 kts 100°
2026-04-17 22:24 48.53430 11.48584 7546 ft 276 kts 100°
2026-04-17 22:24 48.53070 11.51410 7102 ft 273 kts 100°
2026-04-17 22:24 48.52714 11.54217 6658 ft 271 kts 101°
2026-04-17 22:24 48.52358 11.57048 6172 ft 269 kts 100°
2026-04-17 22:25 48.52011 11.59808 5695 ft 268 kts 100°
2026-04-17 22:25 48.51670 11.62521 5287 ft 265 kts 100°
2026-04-17 22:25 48.51326 11.65253 5205 ft 266 kts 101°
2026-04-17 22:25 48.50981 11.67997 5213 ft 267 kts 100°
2026-04-17 22:26 48.50630 11.70780 5215 ft 267 kts 101°
2026-04-17 22:26 48.50288 11.73495 5221 ft 267 kts 101°
2026-04-17 22:26 48.49941 11.76245 5225 ft 267 kts 100°
2026-04-17 22:26 48.49594 11.78991 5222 ft 267 kts 101°
2026-04-17 22:27 48.49246 11.81739 5191 ft 266 kts 101°
2026-04-17 22:27 48.48902 11.84453 4747 ft 263 kts 101°
2026-04-17 22:27 48.48560 11.87153 4234 ft 261 kts 101°
2026-04-17 22:27 48.48221 11.89827 4013 ft 260 kts 101°
2026-04-17 22:28 48.47880 11.92511 4006 ft 261 kts 101°
2026-04-17 22:28 48.47537 11.95205 4001 ft 262 kts 101°
2026-04-17 22:28 48.47195 11.97894 4007 ft 262 kts 101°
2026-04-17 22:28 48.46820 12.00576 4004 ft 262 kts 107°
2026-04-17 22:29 48.45894 12.02828 4000 ft 245 kts 137°
2026-04-17 22:29 48.44498 12.04107 4005 ft 227 kts 156°
2026-04-17 22:29 48.43024 12.04763 4004 ft 218 kts 166°
2026-04-17 22:29 48.41536 12.05102 4006 ft 215 kts 174°
2026-04-17 22:30 48.40056 12.05300 4011 ft 213 kts 174°
2026-04-17 22:30 48.38582 12.05342 3994 ft 209 kts 191°
2026-04-17 22:30 48.37461 12.04174 4019 ft 196 kts 238°
2026-04-17 22:30 48.37299 12.02217 3994 ft 201 kts 286°
2026-04-17 22:31 48.37869 12.00322 3813 ft 195 kts 294°
2026-04-17 22:31 48.37919 11.98363 3593 ft 187 kts 259°
2026-04-17 22:31 48.37741 11.96451 3366 ft 183 kts 265°
2026-04-17 22:31 48.37618 11.94573 3124 ft 177 kts 264°
2026-04-17 22:32 48.37491 11.92789 2902 ft 165 kts 264°
2026-04-17 22:32 48.37372 11.91190 2697 ft 144 kts 264°
2026-04-17 22:32 48.37265 11.89765 2504 ft 131 kts 264°
2026-04-17 22:32 48.37166 11.88435 2327 ft 126 kts 264°
2026-04-17 22:33 48.37066 11.87150 2148 ft 122 kts 264°
2026-04-17 22:33 48.36967 11.85887 1990 ft 121 kts 264°
2026-04-17 22:33 48.36867 11.84641 1833 ft 120 kts 264°
2026-04-17 22:33 48.36776 11.83398 1680 ft 119 kts 265°
2026-04-17 22:34 48.36687 11.82162 1531 ft 119 kts 265°
2026-04-17 22:34 48.36604 11.80981 1487 ft 104 kts 264°
2026-04-17 22:34 48.36537 11.80142 1480 ft 56 kts 263°
2026-04-17 22:34 48.36486 11.79794 1482 ft 24 kts 243°
2026-04-17 22:35 48.36391 11.79580 1486 ft 25 kts 233°
2026-04-17 22:35 48.36284 11.79365 1486 ft 26 kts 233°
2026-04-17 22:35 48.36206 11.79202 1480 ft 7 kts 235°
2026-04-17 22:35 48.36186 11.79119 1486 ft 10 kts 262°
2026-04-17 22:36 48.36178 11.79007 1473 ft 12 kts 264°
2026-04-17 22:36 48.36168 11.78868 1486 ft 15 kts 263°
2026-04-17 22:36 48.36155 11.78705 1486 ft 17 kts 262°
2026-04-17 22:36 48.36140 11.78517 1486 ft 19 kts 264°
2026-04-17 22:37 48.36124 11.78304 1486 ft 22 kts 264°
2026-04-17 22:37 48.36107 11.78083 1486 ft 20 kts 264°
2026-04-17 22:37 48.36091 11.77860 1480 ft 23 kts 263°
2026-04-17 22:37 48.36072 11.77651 1483 ft 8 kts 257°
2026-04-17 22:38 48.36040 11.77659 1485 ft 5 kts 159°
2026-04-17 22:38 48.36030 11.77664 1481 ft 1 kts 167°
2026-04-17 22:38 48.36013 11.77667 1478 ft 5 kts 171°
2026-04-17 22:38 48.35939 11.77681 1486 ft 14 kts 173°
2026-04-17 22:39 48.35837 11.77698 1486 ft 16 kts 173°
2026-04-17 22:39 48.35705 11.77720 1481 ft 23 kts 174°
2026-04-17 22:39 48.35388 11.77775 1474 ft 13 kts 173°
2026-04-17 22:40 48.35331 11.77848 1486 ft 13 kts 86°
2026-04-17 22:40 48.35345 11.77992 1481 ft 15 kts 84°
2026-04-17 22:40 48.35357 11.78134 1486 ft 12 kts 78°
2026-04-17 22:40 48.35370 11.78241 1486 ft 11 kts 83°
2026-04-17 22:41 48.35374 11.78297 1473 ft 0 kts 84°
2026-04-17 22:41 48.35374 11.78302 1474 ft 0 kts 84°